Weather History for Bentonville, AR

Change the Weather History Date:

Wednesday, December 12, 2012

  Actual Average Record
Temperature  
Mean Temperature 37 °F -  
Max Temperature 51 °F 47 °F 75 °F (1949)
Min Temperature 23 °F 27 °F -2 °F (1962)
Degree Days  
Heating Degree Days 28    
Moisture  
Dew Point 14 °F    
Average Humidity 45    
Maximum Humidity 74    
Minimum Humidity 20    
Precipitation  
Precipitation 0.00 in - - ()
Sea Level Pressure  
Sea Level Pressure 30.22 in    
Wind  
Wind Speed 5 mph (South)    
Max Wind Speed 14 mph    
Max Gust Speed 20 mph    
Visibility 10 miles    
Events      
Averages and records for this station are not official NWS values.
T = Trace of Precipitation, MM = Missing Value Source: NWS Daily Summary

Daily Weather History Graph

Daily Weather History Graph

Search for Another Location

Airport:

Trip Planner

Search our weather history database for the weather conditions in past years. The results will help you decide how hot, cold, wet, or windy it might be!

Date:

Astronomy

Dec. 12, 2012 Rise Set
Actual Time 7:19 AM CST 5:02 PM CST
Civil Twilight 6:50 AM CST 5:31 PM CST
Nautical Twilight 6:18 AM CST 6:03 PM CST
Astronomical Twilight 5:47 AM CST 6:34 PM CST
Moon 6:25 AM CST (12/12) 4:39 PM CST (12/12)
Length of Visible Light 10h 40m
Length of Day
9h 43m
Waning Crescent, 1% of the Moon is Illuminated
Dec 12
Waning Crescent
Dec 13
New
Dec 19
First Quarter
Dec 28
Full
Jan 4
Last Quarter

Hourly Weather History & Observations

Time (CST) Temp. Windchill Dew Point Humidity Pressure Visibility Wind Dir Wind Speed Gust Speed Precip Events Conditions
12:15 AM 28.4 °F 22.2 °F 12.2 °F 51% 30.20 in 10.0 mi South 5.8 mph - N/A   Clear
12:35 AM 26.6 °F 21.2 °F 12.2 °F 55% 30.20 in 10.0 mi South 4.6 mph - N/A   Clear
12:55 AM 28.4 °F - 12.2 °F 51% 30.20 in 10.0 mi Calm Calm - N/A   Clear
1:15 AM 28.4 °F - 12.2 °F 51% 30.19 in 10.0 mi Calm Calm - N/A   Clear
1:16 AM 28.4 °F - 12.2 °F 51% 30.19 in 10.0 mi Calm Calm - N/A   Clear
1:35 AM 28.4 °F 23.3 °F 12.2 °F 51% 30.19 in 10.0 mi South 4.6 mph - N/A   Clear
1:55 AM 26.6 °F 22.6 °F 12.2 °F 55% 30.20 in 10.0 mi South 3.5 mph - N/A   Clear
2:16 AM 26.6 °F 22.6 °F 12.2 °F 55% 30.20 in 10.0 mi South 3.5 mph - N/A   Clear
2:35 AM 24.8 °F 20.5 °F 12.2 °F 59% 30.19 in 10.0 mi SSE 3.5 mph - N/A   Clear
2:55 AM 24.8 °F 20.5 °F 14.0 °F 64% 30.19 in 10.0 mi SSE 3.5 mph - N/A   Clear
3:35 AM 24.8 °F - 12.2 °F 59% 30.20 in 10.0 mi Calm Calm - N/A   Clear
3:55 AM 26.6 °F 22.6 °F 12.2 °F 55% 30.20 in 10.0 mi SSE 3.5 mph - N/A   Clear
4:15 AM 24.8 °F 19.1 °F 12.2 °F 59% 30.20 in 10.0 mi SSE 4.6 mph - N/A   Clear
4:35 AM 24.8 °F 20.5 °F 12.2 °F 59% 30.19 in 10.0 mi SSE 3.5 mph - N/A   Clear
4:55 AM 26.6 °F 22.6 °F 12.2 °F 55% 30.20 in 10.0 mi SSE 3.5 mph - N/A   Clear
5:15 AM 24.8 °F 19.1 °F 12.2 °F 59% 30.20 in 10.0 mi SSE 4.6 mph - N/A   Clear
5:55 AM 26.6 °F - 15.8 °F 64% 30.22 in 10.0 mi Calm Calm - N/A   Clear
6:15 AM 23.0 °F - 15.8 °F 74% 30.23 in 10.0 mi Calm Calm - N/A   Clear
6:55 AM 23.0 °F - 12.2 °F 63% 30.24 in 10.0 mi Calm Calm - N/A   Clear
7:15 AM 24.8 °F - 12.2 °F 59% 30.24 in 10.0 mi Calm Calm - N/A   Clear
7:35 AM 24.8 °F 20.5 °F 12.2 °F 59% 30.24 in 10.0 mi SSE 3.5 mph - N/A   Clear
7:56 AM 24.8 °F 20.5 °F 15.8 °F 69% 30.25 in 10.0 mi SSE 3.5 mph - N/A   Clear
8:15 AM 28.4 °F - 17.6 °F 64% 30.26 in 10.0 mi Calm Calm - N/A   Clear
8:35 AM 30.2 °F 25.4 °F 19.4 °F 64% 30.27 in 10.0 mi South 4.6 mph - N/A   Clear
9:15 AM 35.6 °F 30.7 °F 17.6 °F 48% 30.28 in 10.0 mi South 5.8 mph - N/A   Clear
9:35 AM 37.4 °F 31.4 °F 19.4 °F 48% 30.28 in 10.0 mi South 8.1 mph - N/A   Clear
10:35 AM 42.8 °F 36.6 °F 17.6 °F 36% 30.27 in 10.0 mi South 11.5 mph 16.1 mph N/A   Clear
10:56 AM 42.8 °F 36.6 °F 17.6 °F 36% 30.28 in 10.0 mi South 11.5 mph - N/A   Clear
11:15 AM 44.6 °F 39.7 °F 17.6 °F 34% 30.27 in 10.0 mi South 9.2 mph - N/A   Clear
11:35 AM 46.4 °F 42.4 °F 17.6 °F 32% 30.27 in 10.0 mi SSW 8.1 mph - N/A   Clear
12:15 PM 48.2 °F - 17.6 °F 30% 30.25 in 10.0 mi SSW 9.2 mph - N/A   Clear
12:35 PM 48.2 °F - 15.8 °F 27% 30.24 in 10.0 mi SSW 12.7 mph 17.3 mph N/A   Clear
1:15 PM 50.0 °F - 14.0 °F 24% 30.23 in 10.0 mi SSW 8.1 mph 17.3 mph N/A   Clear
1:35 PM 50.0 °F - 15.8 °F 26% 30.22 in 10.0 mi SSW 11.5 mph 16.1 mph N/A   Clear
1:56 PM 51.8 °F - 14.0 °F 22% 30.21 in 10.0 mi South 12.7 mph 18.4 mph N/A   Clear
2:15 PM 50.0 °F - 12.2 °F 22% 30.21 in 10.0 mi South 13.8 mph 19.6 mph N/A   Clear
2:56 PM 50.0 °F - 10.4 °F 20% 30.20 in 10.0 mi South 10.4 mph 19.6 mph N/A   Clear
3:15 PM 50.0 °F - 10.4 °F 20% 30.21 in 10.0 mi SSW 9.2 mph 18.4 mph N/A   Clear
3:35 PM 50.0 °F - 10.4 °F 20% 30.22 in 10.0 mi SSW 10.4 mph - N/A   Clear
4:15 PM 48.2 °F - 10.4 °F 22% 30.20 in 10.0 mi South 8.1 mph - N/A   Clear
4:35 PM 48.2 °F - 10.4 °F 22% 30.21 in 10.0 mi South 8.1 mph - N/A   Clear
4:55 PM 46.4 °F 43.5 °F 12.2 °F 25% 30.21 in 10.0 mi SSW 5.8 mph - N/A   Clear
5:15 PM 44.6 °F 41.4 °F 12.2 °F 27% 30.21 in 10.0 mi SSW 5.8 mph - N/A   Clear
5:16 PM 44.6 °F 41.4 °F 12.2 °F 27% 30.21 in 10.0 mi South 5.8 mph - N/A   Clear
5:35 PM 41.0 °F 37.1 °F 12.2 °F 31% 30.20 in 10.0 mi South 5.8 mph - N/A   Clear
6:16 PM 37.4 °F 32.1 °F 12.2 °F 36% 30.20 in 10.0 mi SSE 6.9 mph - N/A   Clear
6:35 PM 37.4 °F 32.1 °F 12.2 °F 36% 30.20 in 10.0 mi SSE 6.9 mph - N/A   Clear
6:55 PM 33.8 °F 26.4 °F 14.0 °F 44% 30.19 in 10.0 mi SE 9.2 mph - N/A   Clear
7:15 PM 35.6 °F 29.2 °F 14.0 °F 41% 30.19 in 10.0 mi SSE 8.1 mph - N/A   Clear
7:35 PM 35.6 °F 29.9 °F 14.0 °F 41% 30.20 in 10.0 mi SSE 6.9 mph - N/A   Clear
8:15 PM 33.8 °F 27.7 °F 15.8 °F 48% 30.21 in 10.0 mi SE 6.9 mph - N/A   Clear
8:36 PM 32.0 °F 25.6 °F 15.8 °F 51% 30.21 in 10.0 mi SE 6.9 mph - N/A   Clear
8:55 PM 33.8 °F 27.7 °F 15.8 °F 48% 30.21 in 10.0 mi SE 6.9 mph - N/A   Clear
9:35 PM 33.8 °F 27.0 °F 15.8 °F 48% 30.21 in 10.0 mi SE 8.1 mph - N/A   Clear
9:55 PM 33.8 °F 26.4 °F 17.6 °F 52% 30.20 in 10.0 mi SE 9.2 mph - N/A   Clear
10:15 PM 33.8 °F 27.7 °F 17.6 °F 52% 30.20 in 10.0 mi SSE 6.9 mph - N/A   Clear
10:35 PM 35.6 °F 29.9 °F 17.6 °F 48% 30.21 in 10.0 mi South 6.9 mph - N/A   Clear
11:15 PM 35.6 °F 29.9 °F 15.8 °F 44% 30.21 in 10.0 mi South 6.9 mph - N/A   Clear
11:55 PM 35.6 °F 30.7 °F 15.8 °F 44% 30.22 in 10.0 mi South 5.8 mph - N/A   Clear